Погода в Мценске

Погода в Мценске : погода сейчас, прогноз погоды и архив. Всё, что Вы хотите узнать о погоде в Мценске!

Поиск расширенной информации на нашем сайте:

Другие новости

Новости СМИ2

Главная страница сайта

Новости сайта

03.07.2017

Напоминаем, что на нашем специализированном сайте Метеоцентр.Азия вы можете получить высокодетализированные автоматические прогнозы погоды по пунктам России, СНГ и мира в авиационном формате (включающие направление и скорость ветра, видимость, явления погоды, количество и форму облачности, нижнюю и верхнюю границу облачности).


Погода в Мценске - сегодня

Время (UTC), дата Ветер
(°,м/с) 
Видим.   Явления Облачность Т
(°С)
Тd
(°С)
f(%) Тe
(°С)
Pmin
(гПа)
dP
(гПа)
Po
(мм)
O2
(г/м3)
Тmin Tmax R s Состояние
почвы
12 20.10.17 300 (СЗ) 30000 м    8/6 600 м кучево-дожд., средняя, верхняя 
[Cb calv|Ac trans|Ci fib]
+9.6 -1.1 47 +9  1021.5  -0.7  748  291           
15 20.10.17 320 (СЗ) 28000 м    4/4 600 м 
[Sc]
+5.8 -1.2 61 +7  1021.9  748  295           
18 20.10.17 тихо ()   20000 м    3/0 средняя 
[Ac trans]
+2.8 -0.2 81 +3  1022.6  0.4  748  298    +9.9       
21 20.10.17 тихо ()   8000 м  дымка  ясно 
+0.5 -0.9 90 +1  1022.7  748  301           
00 21.10.17 тихо ()   7000 м  дымка  ясно 
-1.8 -2.9 92 -2  1022.5  -0.4  748  304           
03 21.10.17 180 (Ю) 6000 м  дымка  8/8 600 м 
[Sc]
-1.2 -2.2 93 -1  1021.7  -0.7  747  303  -2.3         
06 21.10.17 тихо ()   12000 м    8/8 600 м 
[Sc]
+0.9 -0.8 88 +1  1021.3  -0.1  747  300  -2.3         
09 21.10.17 020 (С) 30000 м    5/3 600 м средняя, верхняя 
[Sc|Ac trans|Ci fib]
+5.9 +0.5 68 +6  1020.5  -0.5  747  294           
12 21.10.17 020 (С) 35000 м    6/3 600 м средняя, верхняя 
[Sc|Ac trans|Ci fib]
+6.3 -2.6 53 +5  1019  -1.4  746  294           
15 21.10.17 350 (С) 30000 м    8/3 600 м верхняя 
[Sc|Ci fib]
+2.5 -2.1 72 +3  1018.7  -0.6  745  298           
18 21.10.17 020 (С) 12000 м    8/8 600 м 
[Sc]
+0.5 -1.2 88 +1  1018.9  745  300    +6.7       
21 21.10.17 020 (С) 8000 м  дымка  8/8 600 м 
[Sc]
+0.1 -1 92 -1  1018.9  745  300           
00 22.10.17 020 (С) 9000 м  дымка  10/10 600 м 
[Sc]
+0.6 -1.1 88 1018.6  -0.3  745  300           
03 22.10.17 020 (С) 9000 м  дымка  10/10 600 м 
[Sc]
+0.1 -1.6 88 -1  1018.6  745  300  -0.5         
06 22.10.17 010 (С) 15000 м    10/10 600 м 
[Sc]
+0.2 -3.8 74 -2  1019.5  0.9  746  301  -0.5         
09 22.10.17 360 (С) 27000 м    8/8 600 м 
[Sc]
+2.2 -7.4 49 +1  1019.7  0.4  746  299           
12 22.10.17 010 (С) 30000 м    8/8 600 м кучево-дожд. 
[Cb calv]
+2.7 -5 57 +1  1019.7  746  298           
15 22.10.17 тихо ()   24000 м    ясно 
-0.3 -5.1 70 -0  1020.3  0.3  746  302           
18 22.10.17 230 (ЮЗ) 21000 м    ясно 
-2.3 -5.5 79 -2  1020.9  0.4  747  304    +2.9       
21 22.10.17 230 (ЮЗ) 18000 м    ясно 
-2.9 -5.9 80 -2  1021.1  0.1  747  305           
00 23.10.17 250 (З) 17000 м    ясно 
-3.3 -6.5 78 -3  1021.3  0.2  747  305           
03 23.10.17 240 (ЮЗ) 16000 м    ясно 
-4.4 -6.7 84 -6  1021.2  -0.2  747  306  -4.5         
06 23.10.17 250 (З) 18000 м    8/8 600 м 
[Sc]
-2.3 -5.9 76 -3  1021.6  0.6  747  304  -4.5         
09 23.10.17 300 (СЗ) 29000 м    8/3 600 м средняя, верхняя 
[Sc|Ac trans|Ci fib]
+1.6 -4.2 65 +1  1021.6  0.4  747  300           
12 23.10.17 270 (З) 35000 м    6/3 600 м кучево-дожд., средняя, верхняя 
[Cb calv|Ac trans|Ci fib]
+3.3 -5.7 52 +4  1022.1  0.5  748  298           
Время (UTC), дата Ветер
(°,м/с) 
Видим.   Явления Облачность Т
(°С)
Тd
(°С)
f(%) Тe
(°С)
Pmin
(гПа)
dP
(гПа)
Po
(мм)
O2
(г/м3)
Тmin Tmax R s Состояние
почвы

Для получения пояснительной информации подведите курсор к названию столбца.

ПОГОДА в Мценске - архив

Всё, что Вы хотите узнать о погоде в Мценске - удобно и подробно!

Выберите нужную дату (начиная с 1 января 2015* года) и нажмите кнопку "Найти".
Будут отображены архивные сводки погоды по пункту Мценск, начиная с указанной даты.


Отображать данные в формате CSV (для использования в таблицах Excel)


Внимание! Наш архив погоды предназначен исключительно для личного некоммерческого использования в познавательных целях. Если Вам необходимы официальные справки о состоянии погоды (для производственных, юридических, коммерческих и т.п. целей), обращайтесь в органы Росгидромета.

*Примечание: данная дата относится к архиву по метеостанциям СССР (Россия, СНГ, Балтия).
Архив по метеостанциям Зарубежной Европы и Азии (кроме Китая) хранится 10 дней, по другим регионам земного шара (Китай, Африка, Америка, Австралия, Океания) - 1 день.

Мценск - район местоположения метеостанции


Название, широта, долгота, высота метеостанции:
Мценск 53.4°ш. 36.5°д. 201 м над ур. моря [Российская Федерация]

Дополнительная информация

В oтличие oт бoльшинства пoгoдных сайтoв мы публикуем пoдрoбную метеoинфoрмацию в детальнoм прoфессиoнальнoм фoрмате.

Характеристики температуры и влажнoсти вoздуха измеряются на высoте 2 м в тени вдали oт зданий и деревьев.
Скoрoсть ветра измеряется на высoте 10 м (на урoвне рoста челoвека скoрoсть ветра ниже в 1.5-2 раза). Если метеoстанция нахoдится в гoрoде или в лесу, тo скoрoсть ветра занижена на 2-4 м/с пo сравнению с oткрытым местoм. Скoрoсть ветра над акватoриями крупных рек и oзёр, а также на вершинах хoлмoв на 2-5 м/с выше, чем в oбычных услoвиях.
Атмoсфернoе давление в разных тoчках местнoсти мoжет значительнo oтличаться oт давления на метеoстанции, в зависимoсти oт услoвий рельефа (при пoдъёме на 10 м давление пoнижается примернo на 1 мм рт.ст.).